FW8987 Weather Reports


time (UTC)temp
C
wind
direction
speed
KPH
gust
KPH
rain 1hr
cm
rain 24hr
cm
rain mn
cm
humidity
%
barometer
mb
20260903014032 10 190 0.0 3.2 0.00 0.00 0.00 93 1004.5
20260903013026 10 213 0.0 4.8 0.00 0.00 0.00 91 1004.5
20260903012022 10 199 1.6 3.2 0.00 0.00 0.00 90 1004.5
20260903011017 10 220 3.2 6.4 0.00 0.00 0.00 90 1004.6
20260903010033 11 214 3.2 9.7 0.00 0.00 0.00 89 1004.6
20260903005027 11 224 3.2 11.3 0.00 0.00 0.00 87 1004.5
20260903004023 11 209 1.6 4.8 0.00 0.00 0.00 87 1004.6
20260903003018 11 223 3.2 9.7 0.00 0.00 0.00 87 1004.6
20260903002034 10 221 4.8 6.4 0.00 0.00 0.00 88 1004.8
20260903001029 12 209 1.6 4.8 0.00 0.00 0.00 84 1004.8
20260903000025 12 241 4.8 6.4 0.00 0.00 0.00 84 1004.7
20260902235019 11 243 3.2 9.7 0.00 0.00 0.00 87 1004.8
20260902234035 10 200 0.0 1.6 0.00 0.00 0.00 90 1004.7
20260902233030 9 163 0.0 1.6 0.00 0.00 0.00 91 1004.7
20260902232025 8 0.0 0.0 0.00 0.00 0.00 91 1004.7
20260902231020 9 161 0.0 1.6 0.00 0.00 0.00 89 1004.7
20260902230016 9 142 0.0 3.2 0.00 0.00 0.00 89 1004.7
20260902225031 9 157 0.0 1.6 0.00 0.00 0.00 89 1004.7
20260902224026 9 167 0.0 1.6 0.00 0.00 0.00 88 1004.8
20260902223042 9 0.0 0.0 0.00 0.00 0.00 89 1004.9
20260902222016 9 0.0 0.0 0.00 0.00 0.00 89 1004.7
20260902221032 9 158 0.0 1.6 0.00 0.00 0.00 88 1004.8
20260902220047 10 163 0.0 1.6 0.00 0.00 0.00 87 1004.8
20260902215022 10 165 0.0 1.6 0.00 0.00 0.00 85 1004.8
20260902214018 10 170 0.0 1.6 0.00 0.00 0.00 83 1004.8
20260902213052 11 156 0.0 1.6 0.00 0.00 0.00 79 1004.9
20260902212027 12 203 0.0 4.8 0.00 0.00 0.00 77 1004.9
20260902211022 12 208 1.6 6.4 0.00 0.00 0.00 77 1004.7
20260902210018 12 202 1.6 4.8 0.00 0.00 0.00 78 1004.7
20260902205034 11 221 0.0 3.2 0.00 0.00 0.00 81 1004.7
20260902204029 11 185 0.0 1.6 0.00 0.00 0.00 81 1004.7
20260902203024 11 0.0 0.0 0.00 0.00 0.00 83 1004.7
20260902202020 11 172 0.0 1.6 0.00 0.00 0.00 83 1004.7
20260902201035 11 182 0.0 1.6 0.00 0.00 0.00 84 1004.7
20260902200030 11 0.0 0.0 0.00 0.00 0.00 84 1004.6
20260902195025 11 157 0.0 1.6 0.00 0.00 0.00 83 1004.6
20260902194021 12 0.0 0.0 0.00 0.00 0.00 79 1004.7
20260902193017 12 213 1.6 3.2 0.00 0.00 0.00 77 1004.7
20260902192032 12 190 0.0 1.6 0.00 0.00 0.00 79 1004.7
20260902191026 12 0.0 0.0 0.00 0.00 0.00 77 1004.7
20260902190043 13 0.0 0.0 0.00 0.00 0.00 76 1004.6
20260902185018 13 0.0 0.0 0.00 0.00 0.00 75 1004.5
20260902184033 13 0.0 0.0 0.00 0.00 0.00 73 1004.6
20260902183049 14 190 0.0 1.6 0.00 0.00 0.00 71 1004.6
20260902182024 15 189 0.0 3.2 0.00 0.00 0.00 69 1004.6
20260902181019 15 189 0.0 1.6 0.00 0.00 0.00 69 1004.4
20260902180015 15 186 0.0 3.2 0.00 0.00 0.00 67 1004.4
20260902175031 16 185 0.0 3.2 0.00 0.00 0.00 65 1004.4
20260902174026 16 210 1.6 4.8 0.00 0.00 0.00 64 1004.3
20260902173020 17 201 1.6 6.4 0.00 0.00 0.00 61 1004.2
20260902172056 17 217 1.6 6.4 0.00 0.00 0.00 59 1004.2
20260902171052 18 207 3.2 11.3 0.00 0.00 0.00 57 1004.1
20260902170027 18 219 3.2 6.4 0.00 0.00 0.00 57 1004.2
20260902165042 18 230 4.8 12.9 0.00 0.00 0.00 55 1004.1
20260902164017 18 206 4.8 14.5 0.00 0.00 0.00 55 1003.9
20260902163033 19 215 3.2 6.4 0.00 0.00 0.00 56 1003.9
20260902162028 19 236 4.8 14.5 0.00 0.00 0.00 56 1004.0
20260902161024 20 232 6.4 22.5 0.00 0.00 0.00 56 1004.0
20260902160019 20 246 8.0 14.5 0.00 0.00 0.00 55 1004.0
20260902155035 20 243 8.0 20.9 0.00 0.00 0.00 54 1004.0
20260902154029 20 226 4.8 12.9 0.00 0.00 0.00 60 1003.8
20260902153044 19 199 3.2 6.4 0.00 0.00 0.00 63 1004.0
20260902152039 20 192 1.6 4.8 0.00 0.00 0.00 64 1004.1
20260902151035 20 197 1.6 4.8 0.00 0.00 0.00 62 1004.0
20260902150031 19 203 3.2 4.8 0.00 0.00 0.00 65 1004.1
20260902145025 20 194 3.2 6.4 0.00 0.00 0.00 63 1004.1
20260902144021 21 199 3.2 6.4 0.00 0.00 0.00 61 1004.2
20260902143016 20 192 3.2 9.7 0.00 0.00 0.00 62 1004.4
20260902142052 20 215 4.8 9.7 0.00 0.00 0.00 62 1004.4
20260902141027 19 235 6.4 17.7 0.00 0.00 0.00 63 1004.5
20260902140022 20 209 3.2 9.7 0.00 0.00 0.00 60 1004.7
20260902135038 20 237 9.7 20.9 0.00 0.00 0.00 59 1004.7
20260902134032 20 223 6.4 17.7 0.00 0.00 0.00 61 1004.7
20260902133048 20 216 4.8 14.5 0.00 0.00 0.00 59 1004.7
20260902132024 20 231 6.4 17.7 0.00 0.00 0.00 60 1004.8
20260902131019 20 234 6.4 22.5 0.00 0.00 0.00 61 1004.9
20260902130035 20 235 4.8 12.9 0.00 0.00 0.00 61 1004.8
20260902125030 20 208 3.2 12.9 0.00 0.00 0.00 63 1005.0
20260902124025 19 234 3.2 11.3 0.00 0.00 0.00 64 1005.0
20260902123020 18 243 6.4 12.9 0.00 0.00 0.00 67 1005.2
20260902122016 18 256 8.0 17.7 0.00 0.00 0.00 66 1005.3
20260902121052 19 235 8.0 16.1 0.00 0.00 0.00 66 1005.4
20260902120027 18 251 12.9 25.7 0.00 0.00 0.00 67 1005.6
20260902115023 18 224 6.4 17.7 0.00 0.00 0.00 69 1005.5
20260902114018 18 204 3.2 9.7 0.00 0.00 0.00 70 1005.5
20260902113033 18 232 6.4 14.5 0.00 0.00 0.00 70 1005.6
20260902112029 18 215 4.8 14.5 0.00 0.00 0.00 70 1005.7
20260902111024 18 249 8.0 16.1 0.00 0.00 0.00 69 1005.7
20260902110019 18 230 4.8 11.3 0.00 0.00 0.00 71 1005.7
20260902105056 18 231 4.8 16.1 0.00 0.00 0.00 73 1005.9
20260902104051 18 247 4.8 9.7 0.00 0.00 0.00 72 1005.9
20260902103026 17 241 6.4 12.9 0.00 0.00 0.00 72 1006.0
20260902102021 17 227 3.2 11.3 0.00 0.00 0.00 75 1006.0
20260902101015 17 246 8.0 14.5 0.00 0.00 0.00 75 1005.9
20260902100056 18 250 6.4 12.9 0.00 0.00 0.00 74 1005.9
20260902095027 18 248 8.0 20.9 0.00 0.00 0.00 75 1006.0
20260902094027 17 230 6.4 11.3 0.00 0.00 0.00 76 1006.0
20260902093017 17 243 9.7 17.7 0.00 0.00 0.00 75 1006.1
20260902092032 17 240 6.4 12.9 0.00 0.00 0.00 78 1006.1
20260902091047 18 229 6.4 16.1 0.00 0.00 0.00 76 1006.1
20260902090043 17 211 6.4 14.5 0.00 0.00 0.00 77 1006.0
20260902085018 17 201 4.8 11.3 0.00 0.00 0.00 80 1006.1
20260902084034 17 218 4.8 11.3 0.00 0.00 0.00 80 1006.2
20260902083050 16 235 6.4 12.9 0.00 0.00 0.00 81 1006.1
20260902082025 16 235 4.8 14.5 0.00 0.00 0.00 82 1006.2
20260902081020 15 237 6.4 9.7 0.00 0.00 0.00 86 1006.2
20260902080016 15 230 4.8 11.3 0.00 0.00 0.00 89 1006.4
20260902075031 15 250 8.0 14.5 0.00 0.00 0.00 92 1006.5
20260902074026 14 247 6.4 12.9 0.00 0.00 0.00 94 1006.5
20260902073022 14 244 6.4 12.9 0.00 0.00 0.00 96 1006.6
20260902072037 13 230 4.8 11.3 0.00 0.00 0.00 98 1006.6
20260902071052 13 225 4.8 11.3 0.00 0.00 0.00 98 1006.6
20260902070027 13 225 3.2 6.4 0.00 0.00 0.00 99 1006.5
20260902065044 12 230 4.8 9.7 0.00 0.00 0.00 99 1006.5
20260902064018 12 216 3.2 6.4 0.00 0.00 0.00 99 1006.5
20260902063033 12 229 4.8 11.3 0.00 0.00 0.00 99 1006.5
20260902062029 12 241 4.8 11.3 0.00 0.00 0.00 99 1006.5
20260902061024 11 230 3.2 12.9 0.00 0.00 0.00 99 1006.6
20260902060040 11 190 1.6 4.8 0.00 0.00 0.00 96 1006.6
20260902055035 11 159 0.0 1.6 0.00 0.00 0.00 94 1006.5
20260902054030 10 0.0 0.0 0.00 0.00 0.00 98 1006.3
20260902053026 8 0.0 0.0 0.00 0.00 0.00 99 1006.3
20260902052022 8 0.0 0.0 0.00 0.00 0.00 99 1006.3
20260902051017 7 0.0 0.0 0.00 0.00 0.00 99 1006.4
20260902050052 6 0.0 0.0 0.00 0.00 0.00 99 1006.5
20260902045028 6 0.0 0.0 0.00 0.00 0.00 99 1006.5
20260902044022 5 0.0 0.0 0.00 0.00 0.00 99 1006.4
20260902043017 5 0.0 0.0 0.00 0.00 0.00 99 1006.6
20260902042032 5 0.0 0.0 0.00 0.00 0.00 99 1006.6
20260902041022 6 0.0 0.0 0.00 0.00 0.00 99 1006.6
20260902040018 6 0.0 0.0 0.00 0.00 0.00 99 1006.6
20260902035032 6 0.0 0.0 0.00 0.00 0.00 99 1006.7
20260902034027 6 0.0 0.0 0.00 0.00 0.00 99 1006.8
20260902033023 6 0.0 0.0 0.00 0.00 0.00 99 1006.8
20260902032059 5 0.0 0.0 0.00 0.00 0.00 99 1007.0
20260902031034 6 0.0 0.0 0.00 0.00 0.00 99 1006.9
20260902030029 6 0.0 0.0 0.00 0.00 0.00 99 1006.9
20260902025025 6 0.0 0.0 0.00 0.00 0.00 99 1007.0
20260902024019 6 0.0 0.0 0.00 0.00 0.00 99 1007.2
20260902023035 6 0.0 0.0 0.00 0.00 0.00 99 1007.1
20260902022030 6 0.0 0.0 0.00 0.00 0.00 99 1007.1
20260902021025 6 0.0 0.0 0.00 0.00 0.00 99 1007.1
20260902020042 6 0.0 0.0 0.00 0.00 0.00 99 1007.2
20260902015016 6 0.0 0.0 0.00 0.00 0.00 99 1007.2